GFSCGP_700_temp_120.txt.gz
Temp
-0 0 1 1 2 3 3 4 4 4 4 4 5 5 5 5 6 6 6 6 6 6 5 5 4 4 3 4 4 4 5 5 5 5 4 4 3 3 3 3 3 3 3 3
-0 0 1 1 2 2 3 3 3 3 4 4 4 6 5 5 6 6 6 6 6 5 4 4 3 3 3 3 3 3 4 4 4 4 4 4 3 3 3 3 2 2 2 2
-0 -0 1 1 1 2 2 2 2 3 3 3 4 6 6 6 6 6 6 6 5 4 3 3 3 2 2 3 3 3 4 4 4 4 3 3 3 3 2 2 2 2 2 1
-1 -0 -0 0 1 1 1 1 2 2 3 3 3 3 6 7 7 6 5 5 4 4 3 3 2 2 2 2 3 3 3 4 4 3 3 3 2 2 2 2 2 2 2 1
-2 -1 -0 0 0 1 1 1 2 2 2 2 3 2 6 6 6 5 5 4 4 4 3 3 2 2 3 3 3 3 3 3 3 3 3 3 2 2 1 1 1 1 1 1
-1 -1 -1 0 0 1 1 1 1 1 1 -2 1 0 5 5 5 4 4 4 4 4 3 3 3 3 3 3 2 3 2 2 3 3 3 2 1 1 1 1 1 0 1 0
-2 -1 -1 -0 -0 0 0 1 0 -3 -4 -5 -1 -1 5 4 4 4 4 4 4 4 4 4 4 4 3 3 3 3 2 2 2 2 2 2 1 1 1 0 0 0 0 0
-1 -2 -2 -1 -0 -0 -0 0 -1 -4 -6 -5 -1 -1 5 4 4 4 4 4 4 4 4 4 4 3 3 3 3 2 2 2 2 2 2 2 1 1 0 -0 -0 -0 -0 -0
-1 -2 -2 -2 -1 -1 -1 -1 -1 -1 -4 -5 0 3 5 5 4 4 4 4 4 4 4 4 4 3 3 3 2 2 2 2 2 2 2 2 1 1 0 0 0 -0 -0 -1
-1 -2 -3 -2 -2 -2 -1 -2 -2 -1 -6 -4 -2 1 5 5 4 4 4 4 4 4 3 3 3 3 2 2 2 1 2 2 1 1 1 0 0 0 0 -0 -0 -0 -1 -1
-1 -1 -3 -2 -1 -1 -2 -2 -2 -2 -2 -6 -5 3 4 4 3 3 3 3 3 3 3 2 2 2 2 2 1 1 1 1 0 -0 0 1 1 1 0 0 0 -0 -0 -1
-1 -1 -1 -1 -1 -1 -2 -2 -2 -2 -2 -3 -4 1 4 4 3 3 3 3 3 2 2 2 2 2 1 1 1 1 0 0 0 1 1 1 1 1 0 0 -0 -1 -1 -1
-1 -1 -1 -2 -1 -1 -1 -1 -1 -2 -2 -2 -4 3 4 4 4 3 2 2 2 2 2 1 1 1 1 0 0 -0 0 0 1 0 0 0 0 0 -0 -1 -1 -1 -1 -2
-1 -1 -0 1 0 0 -1 0 -0 -2 -2 -2 0 4 4 3 2 2 2 2 2 2 2 2 1 1 1 1 1 0 0 0 0 0 0 -0 -0 -0 -1 -1 -1 -2 -2 -2
-1 -0 0 1 0 0 1 0 -0 -1 -0 -1 3 3 5 4 4 3 2 2 3 3 3 3 2 2 1 1 1 0 0 0 -0 -0 -1 -1 -1 -1 -1 -1 -2 -2 -3 -3
-1 -1 -0 1 1 1 1 1 1 -0 -1 -0 0 4 4 3 2 3 3 4 4 4 3 3 2 2 2 1 1 0 -0 -0 -1 -0 -1 -2 -1 -1 -2 -2 -2 -3 -3 -3
-1 -1 -1 -0 0 0 1 4 3 3 2 2 1 4 2 3 3 4 4 3 4 3 3 2 2 2 2 1 0 0 -0 -1 -1 -1 -2 -2 -2 -2 -3 -3 -3 -3 -4 -4
-2 -2 -3 -2 -1 -4 4 4 3 3 3 3 3 3 2 3 3 3 3 3 3 3 2 2 2 2 1 1 1 0 -0 -1 -2 -2 -2 -3 -2 -2 -2 -3 -3 -3 -4 -4
-2 -3 -3 -3 -2 3 3 4 3 3 3 3 2 2 2 2 3 3 2 2 2 2 2 1 1 1 1 1 1 -0 -0 -1 -1 -2 -3 -3 -3 -3 -3 -3 -3 -4 -4 -4
-2 -3 -3 -4 -3 -1 3 3 3 3 2 2 1 1 1 2 2 3 2 1 1 1 0 1 0 0 1 -0 -0 -0 -1 -1 -1 -2 -3 -3 -3 -3 -3 -4 -4 -4 -5 -5
-0 -1 -3 -4 -3 2 2 2 1 2 1 0 0 0 1 1 1 1 1 1 1 1 1 0 0 0 -0 -1 -1 -1 -1 -2 -3 -3 -3 -3 -3 -4 -4 -4 -5 -5 -5 -5
1 1 0 -2 -4 0 2 1 -0 -0 -0 -0 0 0 1 1 1 0 0 0 1 1 1 0 0 -0 -0 -1 -1 -2 -2 -3 -3 -3 -3 -4 -4 -4 -4 -5 -5 -5 -6 -6
0 1 1 1 3 2 1 0 -0 -0 -0 0 0 -0 -0 0 0 -0 -0 0 0 0 0 0 0 0 -1 -1 -2 -2 -3 -3 -3 -4 -4 -4 -4 -5 -5 -5 -5 -6 -6 -6
1 0 0 0 1 1 -0 0 -0 -1 -1 0 1 1 1 0 0 -0 -0 -1 -1 -0 -0 -0 -0 -0 -1 -1 -2 -3 -3 -4 -4 -4 -5 -5 -5 -5 -5 -5 -6 -6 -6 -6
0 -0 -0 -0 0 -0 -0 -1 -1 0 0 1 1 1 1 0 0 -1 -1 -1 -2 -1 -1 -1 -0 -0 -0 -1 -2 -3 -4 -4 -5 -5 -5 -5 -6 -6 -6 -6 -6 -7 -7 -7
1 1 0 -0 -2 -2 -1 -1 -0 0 1 1 1 2 2 1 -0 -1 -1 -2 -2 -2 -1 -1 -1 -1 -1 -1 -2 -3 -4 -4 -5 -5 -5 -6 -6 -6 -6 -6 -7 -8 -7 -7

GFSCGP_700_temp_123.txt.gz
Temp
-0 1 1 1 2 3 4 4 4 4 5 5 5 6 6 6 7 7 7 7 7 6 6 6 6 5 5 4 5 5 5 5 5 5 5 5 5 4 4 4 4 3 3 3
-0 1 1 1 2 3 3 4 4 4 4 4 5 6 6 6 7 7 7 7 7 6 6 5 5 4 4 4 4 4 4 4 5 5 5 5 4 4 4 3 3 3 3 3
0 -0 1 1 2 2 3 3 3 3 3 3 4 6 6 6 7 7 7 7 6 6 5 5 4 4 4 4 4 4 4 4 4 5 5 5 4 4 3 3 3 2 2 2
-0 -0 0 1 2 2 2 2 3 3 3 3 4 4 7 7 7 7 7 6 6 5 5 4 4 4 4 3 3 4 3 4 4 4 4 4 4 3 2 2 2 2 2 2
-1 -1 -0 0 1 2 2 2 2 2 3 3 3 2 7 7 7 7 6 5 5 5 5 4 4 4 4 4 4 4 4 4 4 3 3 3 3 3 2 2 2 2 2 2
-1 -1 -0 0 1 1 2 2 2 2 2 -0 2 2 5 6 6 5 5 5 5 5 5 4 4 4 4 4 4 4 3 3 3 2 3 3 3 3 2 2 2 2 2 2
-2 -1 -1 -0 0 1 1 2 1 -1 -2 -2 -0 -1 6 5 5 5 5 4 4 4 4 4 4 4 4 4 4 4 3 2 2 2 3 3 2 2 2 2 2 2 1 1
-1 -2 -1 -1 -0 0 1 1 1 -2 -3 -3 -0 0 5 5 5 4 4 4 4 4 4 4 4 4 4 4 4 3 3 2 3 3 2 2 2 2 1 2 2 1 1 1
-1 -2 -2 -2 -1 -0 0 0 0 0 -3 -5 1 4 5 5 5 4 4 4 4 4 4 4 4 3 3 3 3 3 3 3 2 2 2 2 2 2 1 1 1 1 0 0
-1 -2 -3 -2 -1 -1 -1 -0 -1 -0 -4 -2 -0 1 5 5 5 4 4 3 4 4 3 3 3 3 3 3 3 3 3 2 2 2 2 2 1 1 1 1 1 1 0 -0
-0 -0 -3 -2 -1 -1 -1 -1 -1 -1 -2 -3 -3 3 4 4 4 3 3 3 3 3 3 3 3 3 3 3 3 3 2 2 2 2 1 1 1 1 1 1 0 0 -0 -1
-0 -1 -2 -2 -1 -1 -1 -1 -1 -0 -2 -2 -3 2 4 4 4 3 3 3 2 2 3 3 3 3 3 3 3 2 2 2 2 1 1 1 1 1 0 0 -0 -0 -1 -1
-1 -1 -2 -2 -1 -1 -1 -0 -1 -1 -1 -2 -2 3 4 4 3 2 2 2 2 3 3 3 3 2 2 3 2 2 1 1 1 1 0 -0 -0 -0 -1 -1 -1 -1 -1 -2
-1 -0 0 0 0 1 -0 1 -0 -1 -2 -1 1 4 4 3 2 2 2 2 2 2 3 3 4 3 2 2 2 2 1 1 1 0 0 -0 -1 -0 -1 -1 -1 -1 -2 -2
-1 -0 -0 0 0 -0 0 -0 -0 -0 0 -1 3 4 5 3 3 2 2 3 3 4 3 3 3 3 2 2 2 1 1 0 -0 -0 -0 -1 -1 -1 -2 -2 -2 -2 -3 -3
-1 -1 -0 1 1 0 1 1 1 0 -0 -0 1 4 2 2 2 2 2 3 4 4 3 3 3 2 2 2 2 1 1 0 -0 -0 -1 -2 -2 -2 -2 -2 -2 -2 -3 -3
-1 -1 -1 -0 -0 0 1 3 3 2 2 2 1 2 1 1 1 1 3 2 2 3 3 2 2 2 1 1 1 1 0 -0 -0 -1 -1 -2 -2 -2 -3 -3 -3 -3 -4 -4
-1 -1 -1 -1 -0 -4 3 3 3 3 2 2 1 1 0 1 2 2 1 2 2 2 2 1 1 1 1 1 1 1 0 -0 -1 -1 -1 -2 -2 -3 -3 -3 -4 -4 -4 -4
-1 -2 -2 -2 -2 2 2 2 2 2 1 1 0 -0 0 1 3 3 2 2 2 2 1 1 1 1 1 1 1 1 1 -0 -1 -1 -2 -2 -3 -4 -4 -4 -4 -4 -5 -5
-1 -1 -2 -3 -3 -1 2 1 1 2 1 1 1 1 1 1 1 2 1 1 1 1 1 1 1 1 1 1 1 1 0 -0 -1 -2 -2 -3 -4 -4 -4 -5 -5 -5 -5 -5
-0 -1 -2 -3 -2 2 2 1 1 1 1 1 0 0 0 1 1 2 1 1 0 -0 -0 -0 0 0 -0 -0 0 0 0 -1 -2 -2 -3 -3 -4 -4 -5 -5 -5 -5 -5 -5
1 0 0 -2 -3 0 1 1 -0 -0 -0 0 1 1 1 1 1 1 1 1 0 0 -0 -1 -0 -0 -1 -1 -1 -1 -1 -2 -2 -3 -3 -3 -4 -5 -5 -5 -5 -6 -6 -6
1 1 1 1 1 1 1 0 -0 -0 -0 0 1 1 1 2 2 2 2 2 1 0 -0 -1 -1 -0 -1 -1 -1 -1 -2 -2 -2 -3 -4 -4 -4 -5 -5 -5 -6 -6 -6 -6
2 1 -0 0 1 0 -0 -0 -1 -1 -0 -0 0 1 1 2 2 2 2 1 -0 -1 -1 -1 -1 -1 -0 -1 -1 -1 -1 -2 -3 -4 -4 -5 -5 -5 -6 -6 -6 -6 -7 -7
0 -0 -0 -1 -1 -0 -0 -1 -1 -0 -0 0 0 0 0 1 1 1 1 -0 -1 -2 -2 -2 -2 -1 -1 -1 -1 -1 -2 -3 -3 -4 -5 -5 -5 -6 -6 -6 -6 -7 -7 -7
1 0 -1 -2 -2 -2 -2 -1 -1 -1 -1 -1 -1 -0 -0 -0 0 0 -0 -1 -1 -2 -2 -2 -2 -1 -1 -1 -2 -2 -3 -4 -4 -5 -5 -6 -6 -6 -6 -6 -7 -7 -7 -8

GFSCGP_700_temp_129.txt.gz
Temp
-2 -1 0 2 2 3 3 3 4 4 5 5 5 5 6 6 7 7 7 7 7 7 7 7 7 7 7 6 6 6 6 5 5 5 5 5 5 5 6 6 5 5 5 5
-1 0 1 1 2 3 3 4 3 4 5 5 5 6 6 6 7 7 7 7 7 7 7 7 7 6 6 6 6 6 5 5 5 5 5 5 5 5 5 5 5 5 4 4
-1 -1 0 1 2 3 3 4 3 4 4 5 5 6 6 6 7 7 7 7 7 7 7 7 7 6 6 6 5 5 5 5 5 5 5 5 5 5 5 5 5 4 4 4
-0 -0 0 1 2 2 3 3 3 4 4 5 5 7 6 7 8 8 8 8 7 7 7 6 6 6 6 6 5 6 6 6 5 5 5 5 5 4 5 5 5 5 4 4
-1 -0 -1 1 2 2 3 4 4 4 3 4 4 4 8 7 7 7 8 8 7 7 6 6 6 6 5 5 5 5 5 5 5 5 4 4 4 4 4 4 4 4 4 3
-0 0 0 1 2 3 3 3 3 4 3 4 4 4 7 7 6 7 7 7 7 6 6 6 5 5 5 5 5 5 5 5 5 4 4 4 4 4 4 3 3 3 3 3
-1 0 1 1 2 2 3 2 1 2 3 5 2 3 7 5 6 6 6 6 6 5 5 5 5 5 5 5 5 5 5 4 4 4 4 4 4 3 3 3 3 3 2 2
-1 -2 -0 0 0 -0 1 2 3 3 5 5 2 3 6 6 6 6 5 5 5 5 5 5 5 5 5 4 4 4 4 4 4 4 3 3 3 3 3 2 2 2 2 1
-1 -2 -0 0 1 1 1 1 2 2 2 4 5 4 5 5 6 5 4 4 4 4 5 5 5 5 4 4 4 4 3 3 3 3 3 3 3 2 2 2 2 1 1 0
-0 -2 -2 -0 1 1 1 2 2 2 3 5 5 4 5 5 5 4 4 4 4 4 4 4 4 4 4 4 3 3 3 3 3 3 3 2 2 2 2 2 1 1 1 0
0 -0 -2 -1 0 -0 1 1 2 2 2 5 7 6 5 4 4 3 3 3 3 3 4 4 4 3 3 3 3 3 3 3 3 3 2 2 2 2 1 1 1 0 0 -0
1 -1 -1 -1 1 1 1 -0 1 3 3 2 2 5 4 4 4 3 3 3 3 3 3 3 3 4 4 3 3 4 3 3 2 2 2 2 1 1 0 0 -0 -0 -0 -1
0 -1 -1 -1 0 1 1 1 1 0 1 2 5 5 4 3 3 2 3 3 3 3 3 3 3 4 4 4 4 4 3 3 2 2 2 2 1 1 0 -0 -0 -1 -1 -1
0 -0 0 2 0 0 0 1 1 -0 0 3 3 3 3 2 1 3 3 3 2 2 2 3 3 4 4 4 4 3 3 3 2 2 2 1 1 -0 -1 -1 -1 -1 -2 -2
-0 -1 0 0 1 1 0 1 1 1 2 1 2 2 1 1 2 3 2 2 2 2 3 3 4 4 4 4 4 3 2 2 2 1 1 1 -0 -0 -1 -1 -2 -2 -2 -3
-0 0 1 1 1 1 2 1 1 1 1 1 1 2 1 2 2 2 2 2 2 3 3 3 3 3 3 2 2 2 1 1 1 1 1 0 -0 -1 -1 -2 -2 -2 -3 -3
-0 0 0 -0 1 1 1 3 3 2 2 2 -1 0 -0 1 2 2 1 2 2 3 3 3 2 2 2 1 0 0 0 0 -0 0 0 0 -0 -1 -1 -2 -2 -3 -3 -4
0 -0 -0 -1 -0 1 2 2 3 3 2 2 2 1 1 1 2 1 2 2 2 2 2 2 2 1 1 1 0 0 -0 -0 -0 -0 -0 -1 -1 -1 -2 -2 -3 -3 -4 -4
-1 -2 -2 -2 0 2 2 2 3 2 2 2 2 1 1 1 2 1 2 2 2 2 2 2 2 2 1 1 0 0 -0 -0 -0 -0 -0 -1 -1 -1 -1 -2 -2 -3 -4 -5
-1 -1 -2 -3 -1 4 2 2 2 2 -0 1 1 1 1 1 2 1 1 1 1 2 2 2 2 2 1 0 0 -0 -1 -1 -1 -1 -1 -1 -1 -1 -2 -2 -3 -3 -4 -4
-1 -2 -3 -3 -2 0 2 1 1 1 1 1 1 1 1 1 1 1 1 1 2 2 2 1 1 1 0 0 -0 -0 -0 -1 -1 -1 -1 -1 -2 -2 -2 -3 -3 -4 -4 -5
1 0 -1 -2 -2 0 2 2 1 1 1 1 1 1 1 0 0 1 1 1 1 1 1 1 1 0 -0 -0 -0 -0 -1 -1 -1 -1 -1 -1 -2 -2 -2 -3 -4 -4 -5 -6
1 1 1 2 0 2 2 2 1 1 0 0 0 -0 -0 -0 -0 -0 -0 -0 -0 -0 -0 -0 -0 -0 -0 -0 -1 -1 -1 -1 -1 -1 -1 -2 -2 -3 -3 -4 -4 -5 -5 -7
2 2 1 2 1 1 1 1 1 0 0 -0 -0 -1 -1 -1 -1 -1 -1 -1 -1 -1 -1 -1 -1 -1 -1 -2 -2 -2 -2 -2 -2 -2 -2 -2 -3 -3 -4 -4 -5 -5 -6 -6
1 1 1 1 1 1 0 0 -0 -0 -1 -1 -1 -1 -1 -1 -2 -2 -2 -2 -2 -3 -3 -3 -3 -3 -3 -3 -3 -3 -3 -3 -3 -4 -4 -4 -4 -4 -4 -4 -5 -6 -6 -7
2 2 2 -0 1 -0 0 -0 -1 -1 -2 -2 -2 -2 -2 -3 -3 -3 -3 -3 -3 -3 -4 -4 -4 -4 -4 -4 -4 -4 -4 -4 -4 -5 -5 -5 -5 -5 -5 -6 -6 -6 -7 -7

GFSCGP_700_temp_135.txt.gz
Temp
-2 -1 -1 0 1 2 3 4 4 4 5 6 6 6 7 7 7 7 8 7 7 7 7 7 7 7 8 7 7 7 7 7 7 7 7 7 7 6 6 6 6 6 6 6
-2 -1 -0 1 2 2 3 3 4 5 5 5 5 6 6 7 8 7 7 7 7 7 7 7 8 7 7 7 7 7 7 7 7 7 7 7 7 6 6 6 6 6 5 5
-2 -1 0 1 1 2 2 3 4 5 4 4 5 6 7 7 7 7 7 6 7 7 8 8 8 7 7 7 7 7 6 6 6 7 7 7 6 6 5 5 5 5 5 5
-1 -0 -0 1 1 2 3 3 4 5 5 5 5 6 7 7 7 7 7 7 7 7 7 8 7 7 7 7 6 6 6 6 6 6 6 6 6 6 5 5 4 4 4 4
-1 -0 0 1 2 3 3 3 4 4 4 5 4 5 7 7 7 6 7 7 7 7 7 7 7 7 6 6 6 6 6 6 6 6 6 6 6 5 5 4 4 4 4 4
-1 -0 1 1 2 2 3 3 3 3 4 1 4 5 6 6 6 6 6 6 6 6 6 6 6 6 6 6 6 6 6 6 6 6 6 5 5 5 4 4 4 4 4 3
-1 0 0 1 2 2 3 3 2 -1 -2 -3 3 4 5 5 5 5 6 6 6 6 6 6 5 5 5 5 5 5 5 5 5 5 5 5 5 4 4 4 4 4 3 3
-1 -2 0 1 2 2 3 3 4 -2 -4 -3 2 4 5 4 5 5 6 6 5 5 5 5 5 5 5 5 5 5 5 5 5 5 4 4 4 4 4 3 3 3 3 3
-1 -1 -0 1 2 2 2 3 3 3 2 2 4 3 3 4 4 5 5 6 5 5 5 5 5 5 5 5 5 5 4 4 4 4 4 4 3 3 3 3 2 2 2 2
-0 -1 -1 0 2 2 2 3 3 3 -2 0 1 4 4 4 4 5 5 5 4 4 4 4 4 4 4 4 4 4 4 4 4 4 4 4 3 3 2 2 2 1 1 1
0 1 -0 -0 1 3 3 2 3 3 3 -3 -1 2 3 4 5 4 4 4 4 4 4 3 4 4 4 4 4 4 5 5 4 4 4 4 3 2 2 1 0 0 0 0
1 1 0 -0 -0 1 2 3 2 3 2 2 2 2 3 3 4 3 3 3 3 3 4 4 4 4 4 4 4 4 4 4 4 4 4 3 3 2 2 1 0 0 0 -0
-0 -1 -1 -1 -0 0 1 2 2 3 3 3 1 2 3 2 3 3 3 3 3 4 4 3 3 3 3 4 5 5 4 4 4 3 3 3 2 2 1 1 1 0 0 -0
-0 -1 1 1 2 2 2 3 2 2 2 2 3 3 3 2 2 3 3 3 3 3 3 3 3 3 4 4 4 4 3 3 3 3 2 2 1 1 1 1 0 0 -0 -0
0 0 1 1 1 2 3 3 3 2 2 3 2 2 2 1 2 2 2 2 3 3 2 2 3 3 3 3 3 3 3 3 2 2 2 1 1 1 0 0 -0 -0 -0 -1
0 1 0 0 1 1 2 2 2 2 2 2 2 2 2 1 2 2 2 2 2 2 2 3 3 3 3 3 3 3 2 2 2 1 1 1 1 1 0 0 -0 -0 -0 -1
0 1 1 1 1 1 2 4 3 4 4 3 2 3 2 2 2 1 1 1 2 2 3 3 3 2 2 2 3 2 2 1 1 1 1 0 0 0 -0 -0 -0 -1 -1 -1
0 0 1 1 0 -3 3 3 3 3 3 3 3 2 2 2 1 1 2 2 2 2 2 2 2 2 2 2 2 1 1 1 1 1 1 1 0 0 -0 -0 -0 -1 -1 -1
-0 0 0 -0 -0 2 3 3 3 4 3 3 3 1 2 1 1 1 2 2 1 1 1 2 2 2 1 1 1 0 0 0 0 0 0 0 0 0 -0 -0 -0 -1 -1 -1
-1 -1 -0 -1 -1 -1 3 3 3 3 3 3 3 2 2 1 1 1 1 1 1 1 1 0 0 0 -0 -0 -0 -0 -0 -0 -0 -0 -0 -1 -1 -1 -1 -1 -1 -1 -1 -2
-1 -1 -1 -1 -0 2 2 2 2 1 3 3 2 2 1 1 1 1 1 0 0 -0 -0 -0 -1 -1 -1 -1 -1 -1 -1 -1 -1 -1 -1 -1 -2 -2 -2 -3 -3 -3 -3 -3
1 0 0 -1 -1 1 2 1 2 2 2 2 1 1 1 1 1 0 -0 -1 -1 -1 -1 -2 -2 -2 -2 -2 -2 -2 -2 -2 -2 -2 -2 -2 -2 -3 -3 -3 -4 -4 -4 -4
1 2 2 2 2 2 2 2 2 2 2 1 1 0 -0 -0 -1 -1 -1 -2 -2 -2 -2 -2 -2 -2 -2 -2 -2 -2 -2 -3 -3 -3 -3 -3 -3 -3 -4 -5 -5 -5 -5 -5
2 2 1 2 3 3 2 2 2 1 1 1 0 0 0 -0 -1 -1 -1 -2 -2 -2 -2 -3 -3 -3 -3 -3 -4 -3 -3 -3 -3 -3 -3 -3 -3 -4 -5 -5 -6 -6 -6 -6
1 2 2 2 2 2 2 2 1 1 0 -0 -0 -0 -1 -1 -2 -2 -2 -3 -3 -3 -3 -4 -4 -4 -4 -4 -4 -4 -4 -4 -4 -4 -4 -4 -4 -4 -4 -5 -7 -7 -7 -7
2 2 2 1 1 1 1 1 0 -0 -0 -1 -1 -1 -2 -2 -3 -3 -3 -3 -4 -4 -4 -4 -4 -5 -5 -5 -5 -4 -4 -4 -4 -4 -4 -4 -4 -4 -5 -5 -6 -8 -8 -8